カタログに戻る

STARLINK-3256

運用中通信VLEO
NORAD 50202·PAYLOAD·🇺🇸 United States

打ち上げ Dec 18, 2021 から Vandenberg Space Force Base

Loading…

次のパス (今後24時間)

TLE

最新Source: CelesTrak SupGP

元期: Sep 14, 2026, 12:36 UTC

1 50202C 21125AY  26257.52548611  .00030208  00000+0  97136-3 0  2572
2 50202  53.1579 100.8882 0001284  94.5727  50.8258 15.31687984    18

AllMySatでSTARLINK-3256をリアルタイム追跡

Download on the App Store